User: anonymous   Login
Location: Unspecified
(0.0000°N, 0.0000°E)
Time: 00:54:17
(UTC+00:00)
Language:

LAPAN-TUBSAT - Orbit

View from above orbital plane
View from above orbital plane
View from above satellite
View from above satellite

Ground track
Ground track

The orbit data is extracted from the following two-line orbital elements,

1 29709U 07001A   21023.77778863  .00000020  00000-0  91921-5 0  9995
2 29709  97.8934 345.9498 0014192 112.1822 248.0904 14.82258433759003
Epoch (UTC): 23 January 2021 18:40:00
Eccentricity: 0.0014192
inclination: 97.8934°
perigee height: 612 km
apogee height: 632 km
right ascension of ascending node: 345.9498°
argument of perigee: 112.1822°
revolutions per day: 14.82258433
mean anomaly at epoch: 248.0904°
orbit number at epoch: 75900

The dashed part of the orbit path shows where the satellite is in the earth's shadow,  

DLR